Location: Azul
(36.7830°S, 59.8500°W)
Time: 08:38:36
(UTC-03:00)

NOAA 19 - Pass Details

Date: 30 October 2021
Orbit: 840 x 861 km, 99.2° (Epoch: 07 December)

Event Time Altitude Azimuth Distance (km) Brightness Sun altitude
Rises 22:07:49 0° 188° (S) 3,474 9.2 -27.3°
Reaches altitude 10° 22:11:28 10° 212° (SSW) 2,527 8.6 -27.8°
Maximum altitude 22:14:07 14° 240° (WSW) 2,264 8.2 -28.2°
Drops below altitude 10° 22:16:46 10° 269° (W) 2,512 8.1 -28.5°
Sets 22:20:23 0° 293° (WNW) 3,436 8.6 -29.0°
